PARDEE (PAR)

Elevation: 568' · MOKELUMNE R basin · Operator: East Bay Municipal Utility District

Provisional data, subject to change.
Query executed Friday at 14:28:40   clock

Select a sensor type for a plot of data.
Note: Reservoir Flows are daily averages.

Earlier

Date RES ELE    STORAGE    RES CHG    OUTFLOW    INFLOW    PPT INC   
 FEET   AF   AF   CFS   CFS   INCHES  
07/23/2014 556.41 173940 -1008 754 261 0.00
07/24/2014 556.44 173940 70 326 370 0.00
07/25/2014 556.50 174040 193 351 413 0.00
07/26/2014 556.68 174410 361 257 485 0.00
07/27/2014 556.86 174820 369 234 483 0.00
07/28/2014 556.55 174180 -593 750 444 0.00
07/29/2014 556.22 173530 -621 748 431 0.00
07/30/2014 555.84 172730 -748 767 382 0.00
07/31/2014 556.01 173060 390 287 496 0.00
08/01/2014 556.14 173340 327 294 478 0.00
08/02/2014 556.28 173650 295 280 477 0.00
08/03/2014 556.45 173980 345 267 462 0.00
08/04/2014 556.14 173340 -593 724 404 0.00
08/05/2014 555.85 172730 -593 740 439 0.00
08/06/2014 555.56 172160 -524 760 480 0.00
08/07/2014 555.81 172610 544 280 545 0.00
08/08/2014 555.99 172980 470 241 464 0.00
08/09/2014 556.16 173380 352 207 447 0.00
08/10/2014 556.47 173980 627 206 543 0.00
08/11/2014 556.19 173420 -482 734 462 0.00
08/12/2014 555.90 172850 -516 780 489 0.00
08/13/2014 555.53 172080 -705 770 390 0.00
08/14/2014 555.80 172630 608 221 536 0.00
08/15/2014 556.02 173100 507 224 500 0.00
08/16/2014 556.16 173360 299 253 423 0.00
08/17/2014 556.25 173590 185 281 437 0.00
08/18/2014 555.94 172930 -608 777 453 0.00
08/19/2014 555.54 172120 -768 744 329 0.00
08/20/2014 555.08 171160 -889 736 258 0.00
08/21/2014 555.24 171470 381 229 414 0.00
08/22/2014 -- -- -- -- -- --

Later | Latest

Warning! This data is preliminary and subject to revision.

Download Data Now Download Data Now | Show PAR Map | Plot PAR Data | 1 Month PAR Data | Real-Time PAR Data | PAR Info